Back to catalog

DELTA 1 DEB

AliveLEO
NORAD 10844·DEBRIS·🇺🇸 United States

Launched Jul 29, 1976 from Vandenberg Space Force Base

Loading…

Next Passes (next 24 hours)

TLE

FreshSource: Space-Track

Epoch: Sep 14, 2026, 10:08 UTC

1 10844U 76077CQ  26257.42246921 -.00002720  00000-0 -25212-2 0  9993
2 10844 101.2173 324.8409 0113163  17.0932  46.9334 13.78146871423241

Track DELTA 1 DEB in real time with AllMySat

Download on the App Store